{"data":{"norad_id":66267,"intl_designator":"2025-247C","name":"STARLINK-35550","alt_names":[],"object_type":"PAYLOAD","status":"ACTIVE","operator":null,"country":"US","launch_date":"2025-10-31","launch_site_code":"AFWTR","launch_vehicle":null,"mission":null,"orbit_class":"UNKNOWN","rcs_meters":null,"size_class":null,"mass_kg":null,"dimensions":null,"purposes":["comms"],"wikipedia_slug":null,"has_3d_model":false,"image_url":null,"decayed_at":null,"tle_current":{"epoch":"2026-05-25T03:11:31.067808Z","epoch_age_seconds":67582,"freshness":"FRESH","line1":"1 66267U 25247C   26145.13299847  .00022636  00000+0  67892-3 0  9991","line2":"2 66267  53.1593 195.1862 0001217  60.3865 299.7259 15.34405757 32757","mean_motion":15.34405757,"eccentricity":0.0001217,"inclination_deg":53.1593,"raan_deg":195.1862,"arg_perigee_deg":60.3865,"mean_anomaly_deg":299.7259,"bstar":0.00067892,"rev_number":3275,"period_min":93.847405970075,"perigee_km":461.85360106854,"apogee_km":463.5186574182,"semimajor_km":6840.8231292434,"source":"CELESTRAK","updated_at":"2026-05-25T13:38:21.159774Z"}}}